EW5331 Weather Reports


Display with metric or nautical units.
time (UTC)temp
F
wind
direction
speed
MPH
gust
MPH
rain 1hr
in
rain 24hr
in
rain mn
in
humidity
%
barometer
mb
20260905214048 92 245 0.0 0.0 0.00 0.00 0.00 61 1009.0
20260905213509 93 245 0.0 1.0 0.00 0.00 0.00 62 1009.1
20260905213027 93 149 0.0 1.0 0.00 0.00 0.00 61 1009.0
20260905212536 93 149 0.0 3.0 0.00 0.00 0.00 62 1009.0
20260905212049 93 306 0.0 4.0 0.00 0.00 0.00 60 1009.0
20260905211600 93 305 0.0 4.0 0.00 0.00 0.00 57 1009.0
20260905211506 93 51 0.0 3.0 0.00 0.00 0.00 57 1009.0
20260905211016 93 25 0.0 0.0 0.00 0.00 0.00 60 1009.1
20260905210534 93 308 0.0 1.0 0.00 0.00 0.00 59 1009.0
20260905210050 94 308 0.0 1.0 0.00 0.00 0.00 58 1009.2
20260905205558 94 271 0.0 0.0 0.00 0.00 0.00 58 1009.2
20260905205504 94 271 0.0 0.0 0.00 0.00 0.00 57 1009.2
20260905205014 94 271 0.0 1.0 0.00 0.00 0.00 60 1009.3
20260905204531 95 173 0.0 4.0 0.00 0.00 0.00 57 1009.4
20260905204037 95 205 0.0 4.0 0.00 0.00 0.00 58 1009.4
20260905203556 95 34 0.0 0.0 0.00 0.00 0.00 57 1009.4
20260905203015 95 5 0.0 0.0 0.00 0.00 0.00 56 1009.5
20260905202528 95 76 0.0 0.0 0.00 0.00 0.00 58 1009.6
20260905202036 95 195 0.0 1.0 0.00 0.00 0.00 58 1009.7
20260905201601 94 195 0.0 1.0 0.00 0.00 0.00 57 1009.7
20260905201059 95 184 0.0 0.0 0.00 0.00 0.00 57 1009.7
20260905201002 95 184 0.0 0.0 0.00 0.00 0.00 57 1009.8
20260905200521 95 246 0.0 0.0 0.00 0.00 0.00 57 1009.9
20260905200040 95 246 0.0 1.0 0.00 0.00 0.00 57 1009.9
20260905195558 95 186 0.0 1.0 0.00 0.00 0.00 58 1009.9
20260905195011 95 280 0.0 0.0 0.00 0.00 0.00 57 1009.9
20260905194522 94 329 0.0 0.0 0.00 0.00 0.00 59 1010.1
20260905194032 95 229 0.0 0.0 0.00 0.00 0.00 56 1010.3
20260905193554 95 229 0.0 0.0 0.00 0.00 0.00 57 1010.3
20260905193015 95 229 0.0 0.0 0.00 0.00 0.00 58 1010.3
20260905192524 95 76 0.0 0.0 0.00 0.00 0.00 57 1010.3
20260905192036 94 338 0.0 1.0 0.00 0.00 0.00 58 1010.3
20260905191547 94 315 0.0 1.0 0.00 0.00 0.00 59 1010.2
20260905191012 94 328 0.0 6.0 0.00 0.00 0.00 58 1010.4
20260905190523 94 178 2.0 6.0 0.00 0.00 0.00 57 1010.6
20260905190038 94 321 0.0 0.0 0.00 0.00 0.00 59 1010.6
20260905185547 94 169 0.0 1.0 0.00 0.00 0.00 58 1010.6
20260905185005 94 148 0.0 1.0 0.00 0.00 0.00 59 1010.7
20260905184529 94 171 0.0 0.0 0.00 0.00 0.00 59 1010.8
20260905184039 94 232 0.0 3.0 0.00 0.00 0.00 59 1010.9
20260905183550 93 186 0.0 3.0 0.00 0.00 0.00 59 1010.9
20260905183007 93 157 0.0 0.0 0.00 0.00 0.00 58 1010.9
20260905182521 93 181 0.0 5.0 0.00 0.00 0.00 59 1010.9
20260905182036 93 181 0.0 5.0 0.00 0.00 0.00 60 1010.9
20260905181542 93 5 0.0 0.0 0.00 0.00 0.00 59 1011.0
20260905181055 92 236 0.0 0.0 0.00 0.00 0.00 60 1011.1
20260905180508 92 260 0.0 5.0 0.00 0.00 0.00 62 1011.1
20260905180028 92 182 1.0 5.0 0.00 0.00 0.00 61 1011.2
20260905175537 92 191 1.0 5.0 0.00 0.00 0.00 63 1011.2
20260905175052 91 173 0.0 5.0 0.00 0.00 0.00 61 1011.3
20260905174504 91 178 3.0 5.0 0.00 0.00 0.00 62 1011.4
20260905174021 91 155 0.0 1.0 0.00 0.00 0.00 63 1011.5
20260905173537 91 176 0.0 0.0 0.00 0.00 0.00 63 1011.5
20260905173050 90 269 0.0 0.0 0.00 0.00 0.00 64 1011.5
20260905172559 90 123 0.0 4.0 0.00 0.00 0.00 65 1011.6
20260905172506 90 199 0.0 4.0 0.00 0.00 0.00 65 1011.6
20260905172017 90 146 0.0 4.0 0.00 0.00 0.00 63 1011.7
20260905171536 90 190 0.0 3.0 0.00 0.00 0.00 66 1011.7
20260905171048 90 175 0.0 4.0 0.00 0.00 0.00 65 1011.9
20260905170503 89 150 0.0 0.0 0.00 0.00 0.00 68 1011.9
20260905170015 89 181 0.0 0.0 0.00 0.00 0.00 69 1012.0
20260905165527 88 172 0.0 0.0 0.00 0.00 0.00 68 1012.1
20260905165037 88 149 0.0 0.0 0.00 0.00 0.00 70 1012.3
20260905164602 87 149 0.0 0.0 0.00 0.00 0.00 72 1012.4
20260905164005 87 248 0.0 3.0 0.00 0.00 0.00 71 1012.5
20260905163518 87 167 1.0 3.0 0.00 0.00 0.00 71 1012.5
20260905163027 86 163 0.0 0.0 0.00 0.00 0.00 72 1012.5
20260905162544 86 194 0.0 2.0 0.00 0.00 0.00 74 1012.5
20260905162054 86 172 0.0 5.0 0.00 0.00 0.00 74 1012.6
20260905161509 85 190 2.0 5.0 0.00 0.00 0.00 74 1012.5
20260905161024 85 238 0.0 3.0 0.00 0.00 0.00 75 1012.6
20260905160533 85 168 0.0 4.0 0.00 0.00 0.00 77 1012.6
20260905160043 84 189 0.0 1.0 0.00 0.00 0.00 78 1012.6
20260905155600 84 189 0.0 3.0 0.00 0.00 0.00 78 1012.6
20260905155009 83 140 1.0 8.0 0.00 0.00 0.00 80 1012.8
20260905154525 83 186 0.0 1.0 0.00 0.00 0.00 81 1012.8
20260905154036 83 84 0.0 6.0 0.00 0.00 0.00 81 1012.9
20260905153548 83 167 0.0 6.0 0.00 0.00 0.00 81 1012.9
20260905153059 83 249 0.0 0.0 0.00 0.00 0.00 82 1012.9
20260905153011 83 144 0.0 0.0 0.00 0.00 0.00 84 1012.9
20260905152515 82 162 0.0 7.0 0.00 0.00 0.00 84 1013.1
20260905152032 82 252 0.0 7.0 0.00 0.00 0.00 84 1013.1
20260905151541 81 192 0.0 4.0 0.00 0.00 0.00 86 1013.1
20260905151058 81 308 0.0 4.0 0.00 0.00 0.00 86 1013.1
20260905150511 80 134 0.0 5.0 0.00 0.00 0.00 89 1013.2
20260905150023 79 213 0.0 3.0 0.00 0.00 0.00 88 1013.2
20260905145531 79 119 0.0 5.0 0.00 0.00 0.00 89 1013.2
20260905145047 79 74 1.0 5.0 0.00 0.00 0.00 88 1013.2
20260905144558 79 96 0.0 3.0 0.00 0.00 0.00 91 1013.1
20260905144013 78 125 0.0 3.0 0.00 0.00 0.00 92 1013.0
20260905143524 77 106 0.0 0.0 0.00 0.00 0.00 92 1013.0
20260905143037 77 264 0.0 5.0 0.00 0.00 0.00 92 1013.1
20260905142554 77 269 0.0 5.0 0.00 0.00 0.00 91 1013.2
20260905142011 77 246 0.0 3.0 0.00 0.00 0.00 92 1013.1
20260905141522 77 105 0.0 4.0 0.00 0.00 0.00 93 1013.0
20260905141035 76 216 0.0 4.0 0.00 0.00 0.00 94 1013.2
20260905140550 76 14 0.0 2.0 0.00 0.00 0.00 94 1013.4
20260905140012 76 5 0.0 8.0 0.00 0.00 0.00 94 1013.4
20260905135521 76 17 0.0 0.0 0.00 0.00 0.00 94 1013.4
20260905135035 76 90 0.0 0.0 0.00 0.00 0.00 94 1013.5
20260905134552 76 348 0.0 0.0 0.00 0.00 0.00 94 1013.4
20260905134007 76 348 0.0 0.0 0.00 0.00 0.00 94 1013.4
20260905133521 76 348 0.0 0.0 0.00 0.00 0.00 94 1013.7
20260905133034 76 348 0.0 0.0 0.00 0.00 0.00 94 1014.0
20260905132554 76 333 0.0 2.0 0.00 0.00 0.00 95 1014.0
20260905132005 76 30 0.0 4.0 0.00 0.00 0.00 94 1014.0
20260905131520 76 62 0.0 4.0 0.00 0.00 0.00 96 1013.5
20260905131039 76 62 0.0 3.0 0.00 0.00 0.00 95 1013.6
20260905130557 76 184 0.0 0.0 0.00 0.00 0.00 95 1013.1
20260905130008 76 184 0.0 0.0 0.00 0.00 0.00 96 1013.1
20260905125521 75 249 0.0 0.0 0.00 0.00 0.00 97 1013.0
20260905125031 75 249 0.0 0.0 0.00 0.00 0.00 96 1012.9
20260905124545 75 312 0.0 0.0 0.00 0.00 0.00 97 1013.0
20260905124100 75 312 0.0 3.0 0.00 0.00 0.00 97 1012.9
20260905124001 75 312 0.0 3.0 0.00 0.00 0.00 97 1012.9
20260905123515 75 300 0.0 3.0 0.00 0.00 0.00 97 1013.1
20260905123025 75 269 0.0 1.0 0.00 0.00 0.00 97 1013.0
20260905122543 75 360 0.0 0.0 0.00 0.00 0.00 98 1013.0
20260905122002 75 360 0.0 6.0 0.00 0.00 0.00 98 1013.1
20260905121517 75 341 0.0 3.0 0.00 0.00 0.00 99 1013.0
20260905121035 75 222 0.0 0.0 0.00 0.00 0.00 99 1013.0
20260905120541 75 222 0.0 0.0 0.00 0.00 0.00 99 1012.8
20260905120053 75 252 0.0 0.0 0.00 0.00 0.00 99 1012.7
20260905120001 75 252 0.0 0.0 0.00 0.00 0.00 99 1012.7
20260905115511 74 252 0.0 1.0 0.00 0.00 0.00 99 1012.5
20260905115025 74 24 0.0 1.0 0.00 0.00 0.00 98 1012.6
20260905114542 74 327 0.0 4.0 0.00 0.00 0.00 99 1012.3
20260905114057 74 48 1.0 4.0 0.00 0.00 0.00 98 1012.5
20260905113509 74 307 0.0 0.0 0.00 0.00 0.00 98 1012.2
20260905113023 74 307 0.0 0.0 0.00 0.00 0.00 98 1012.0
20260905112533 74 307 0.0 0.0 0.00 0.00 0.00 98 1011.9
20260905112051 74 155 0.0 0.0 0.00 0.00 0.00 98 1011.9
20260905111507 74 155 0.0 0.0 0.00 0.00 0.00 98 1011.8
20260905111021 74 172 0.0 0.0 0.00 0.00 0.00 98 1011.7
20260905110533 75 172 0.0 0.0 0.00 0.00 0.00 98 1011.7
20260905110053 75 172 0.0 0.0 0.00 0.00 0.00 98 1011.5
20260905105508 75 172 0.0 0.0 0.00 0.00 0.00 98 1011.4
20260905105020 75 172 0.0 0.0 0.00 0.00 0.00 98 1011.4
20260905104529 75 172 0.0 0.0 0.00 0.00 0.00 98 1011.4
20260905104049 75 172 0.0 0.0 0.00 0.00 0.00 98 1011.4
20260905103558 75 172 0.0 0.0 0.00 0.00 0.00 98 1011.3
20260905103015 75 172 0.0 0.0 0.00 0.00 0.00 98 1011.3
20260905102534 75 172 0.0 0.0 0.00 0.00 0.00 98 1011.4
20260905102047 75 172 0.0 0.0 0.00 0.00 0.00 98 1011.4
20260905101603 75 172 0.0 0.0 0.00 0.00 0.00 98 1011.5
20260905101505 75 172 0.0 0.0 0.00 0.00 0.00 98 1011.5
20260905101012 75 172 0.0 0.0 0.00 0.00 0.00 98 1011.5
20260905100527 75 172 0.0 0.0 0.00 0.00 0.00 97 1011.5
20260905100043 75 172 0.0 0.0 0.00 0.00 0.00 97 1011.4
20260905095504 75 172 0.0 0.0 0.00 0.00 0.00 97 1011.4
20260905095016 75 172 0.0 0.0 0.00 0.00 0.00 97 1011.3
20260905094527 75 172 0.0 0.0 0.00 0.00 0.00 97 1011.3
20260905094036 75 172 0.0 0.0 0.00 0.00 0.00 97 1011.2
20260905093552 76 172 0.0 0.0 0.00 0.00 0.00 97 1011.1
20260905093004 76 172 0.0 0.0 0.00 0.00 0.00 97 1011.0
20260905092518 76 172 0.0 0.0 0.00 0.00 0.00 97 1010.8
20260905092031 76 172 0.0 0.0 0.00 0.00 0.00 97 1010.8
20260905091544 76 172 0.0 0.0 0.00 0.00 0.00 97 1010.7
20260905091054 76 172 0.0 0.0 0.00 0.00 0.00 97 1010.6
20260905090520 76 172 0.0 0.0 0.00 0.00 0.00 97 1010.6
20260905090030 76 172 0.0 0.0 0.00 0.00 0.00 97 1010.7
20260905085548 76 172 0.0 0.0 0.00 0.00 0.00 97 1010.6
20260905085058 76 172 0.0 0.0 0.00 0.00 0.00 97 1010.6
20260905084510 76 172 0.0 0.0 0.00 0.00 0.00 97 1010.7
20260905084026 76 172 0.0 0.0 0.00 0.00 0.00 97 1010.7
20260905083544 76 172 0.0 0.0 0.00 0.00 0.00 97 1010.6
20260905083101 77 172 0.0 0.0 0.00 0.00 0.00 97 1010.7
20260905083008 77 172 0.0 0.0 0.00 0.00 0.00 97 1010.7
20260905082516 77 172 0.0 0.0 0.00 0.00 0.00 97 1010.8
20260905082031 77 172 0.0 0.0 0.00 0.00 0.00 97 1010.8
20260905081540 77 172 0.0 0.0 0.00 0.00 0.00 97 1010.8
20260905081057 77 172 0.0 0.0 0.00 0.00 0.00 97 1010.7
20260905080508 77 172 0.0 0.0 0.00 0.00 0.00 97 1010.7
20260905080022 77 172 0.0 0.0 0.00 0.00 0.00 97 1010.6
20260905075531 77 172 0.0 0.0 0.00 0.00 0.00 97 1010.7
20260905075049 77 172 0.0 0.0 0.00 0.00 0.00 97 1010.8
20260905074507 77 172 0.0 0.0 0.00 0.00 0.00 96 1010.9
20260905074022 77 172 0.0 0.0 0.00 0.00 0.00 96 1011.1
20260905073534 77 172 0.0 0.0 0.00 0.00 0.00 97 1011.1
20260905073047 77 172 0.0 0.0 0.00 0.00 0.00 96 1011.1
20260905072559 77 172 0.0 0.0 0.00 0.00 0.00 96 1011.1
20260905072503 77 172 0.0 0.0 0.00 0.00 0.00 96 1011.1
20260905072026 77 172 0.0 0.0 0.00 0.00 0.00 96 1011.1
20260905071532 77 172 0.0 0.0 0.00 0.00 0.00 96 1011.2
20260905071047 77 172 0.0 0.0 0.00 0.00 0.00 96 1011.2
20260905070601 77 172 0.0 0.0 0.00 0.00 0.00 96 1011.2
20260905070016 77 172 0.0 0.0 0.00 0.00 0.00 96 1011.2
20260905065535 77 172 0.0 0.0 0.00 0.00 0.00 96 1011.3
20260905065046 77 172 0.0 0.0 0.00 0.00 0.00 96 1011.3
20260905064556 77 172 0.0 0.0 0.00 0.00 0.00 95 1011.3
20260905064503 77 172 0.0 0.0 0.00 0.00 0.00 96 1011.3
20260905064015 77 172 0.0 0.0 0.00 0.00 0.00 96 1011.3
20260905063530 77 172 0.0 0.0 0.00 0.00 0.00 95 1011.4
20260905063042 77 172 0.0 0.0 0.00 0.00 0.00 96 1011.5
20260905062557 77 172 0.0 0.0 0.00 0.00 0.00 96 1011.6
20260905062006 77 172 0.0 0.0 0.00 0.00 0.00 95 1011.8
20260905061530 77 172 0.0 0.0 0.00 0.00 0.00 96 1011.8
20260905061030 77 172 0.0 0.0 0.00 0.00 0.00 96 1011.8
20260905060546 77 172 0.0 0.0 0.00 0.00 0.00 96 1011.8
20260905060056 77 172 0.0 0.0 0.00 0.00 0.00 95 1011.9
20260905055517 77 172 0.0 0.0 0.00 0.00 0.00 95 1011.9
20260905055024 77 172 0.0 0.0 0.00 0.00 0.00 95 1011.9
20260905054540 77 172 0.0 0.0 0.00 0.00 0.00 95 1012.0
20260905054050 77 172 0.0 0.0 0.00 0.00 0.00 95 1012.1
20260905053508 77 172 0.0 0.0 0.00 0.00 0.00 95 1012.1
20260905053019 77 172 0.0 0.0 0.00 0.00 0.00 95 1012.1
20260905052529 77 172 0.0 0.0 0.00 0.00 0.00 95 1012.1
20260905052045 77 172 0.0 0.0 0.00 0.00 0.00 95 1012.1
20260905051558 77 172 0.0 0.0 0.00 0.00 0.00 95 1012.1
20260905051010 77 172 0.0 0.0 0.00 0.00 0.00 95 1012.1
20260905050524 77 172 0.0 0.0 0.00 0.00 0.00 94 1012.1
20260905050040 77 172 0.0 0.0 0.00 0.00 0.00 94 1012.2
20260905045557 77 172 0.0 0.0 0.00 0.00 0.00 94 1012.2
20260905045014 77 172 0.0 0.0 0.00 0.00 0.00 94 1012.3
20260905044528 77 172 0.0 0.0 0.00 0.00 0.00 94 1012.2
20260905044036 77 172 0.0 0.0 0.00 0.00 0.00 94 1012.2
20260905043550 77 172 0.0 0.0 0.00 0.00 0.00 94 1012.2
20260905043006 77 172 0.0 0.0 0.00 0.00 0.00 94 1012.1
20260905042516 77 172 0.0 0.0 0.00 0.00 0.00 94 1012.1
20260905042032 78 172 0.0 0.0 0.00 0.00 0.00 94 1012.1
20260905041549 78 172 0.0 0.0 0.00 0.00 0.00 94 1012.1
20260905041055 78 172 0.0 0.0 0.00 0.00 0.00 93 1012.2
20260905040507 78 172 0.0 0.0 0.00 0.00 0.00 93 1012.2
20260905040022 78 172 0.0 0.0 0.00 0.00 0.00 93 1012.2
20260905035525 78 172 0.0 0.0 0.00 0.00 0.00 93 1012.2
20260905035039 78 172 0.0 0.0 0.00 0.00 0.00 93 1012.2
20260905034557 78 172 0.0 0.0 0.00 0.00 0.00 92 1012.2
20260905034008 78 172 0.0 0.0 0.00 0.00 0.00 92 1012.3
20260905033519 78 172 0.0 0.0 0.00 0.00 0.00 92 1012.3
20260905033034 78 172 0.0 0.0 0.00 0.00 0.00 92 1012.3
20260905032543 78 172 0.0 0.0 0.00 0.00 0.00 92 1012.4
20260905032010 78 172 0.0 0.0 0.00 0.00 0.00 92 1012.3
20260905031523 79 172 0.0 0.0 0.00 0.00 0.00 91 1012.3
20260905031033 79 172 0.0 0.0 0.00 0.00 0.00 92 1012.3
20260905030547 79 172 0.0 0.0 0.00 0.00 0.00 91 1012.3
20260905030055 79 172 0.0 0.0 0.00 0.00 0.00 91 1012.3
20260905025512 79 172 0.0 0.0 0.00 0.00 0.00 90 1012.2
20260905025030 79 172 0.0 0.0 0.00 0.00 0.00 90 1012.2
20260905024549 79 172 0.0 0.0 0.00 0.00 0.00 91 1012.3
20260905024059 79 172 0.0 0.0 0.00 0.00 0.00 91 1012.2
20260905024001 79 172 0.0 0.0 0.00 0.00 0.00 91 1012.2
20260905023515 79 172 0.0 0.0 0.00 0.00 0.00 90 1012.1
20260905023025 80 172 0.0 0.0 0.00 0.00 0.00 90 1012.0
20260905022547 80 172 0.0 0.0 0.00 0.00 0.00 90 1012.1
20260905022059 80 172 0.0 0.0 0.00 0.00 0.00 89 1012.0
20260905022001 80 172 0.0 0.0 0.00 0.00 0.00 89 1012.0
20260905021527 80 172 0.0 0.0 0.00 0.00 0.00 90 1012.0
20260905021025 80 172 0.0 0.0 0.00 0.00 0.00 89 1012.0
20260905020540 80 172 0.0 0.0 0.00 0.00 0.00 89 1012.0
20260905020059 80 172 0.0 0.0 0.00 0.00 0.00 89 1011.9
20260905020002 81 172 0.0 0.0 0.00 0.00 0.00 88 1011.9
20260905015518 81 172 0.0 0.0 0.00 0.00 0.00 88 1012.0
20260905015024 81 172 0.0 0.0 0.00 0.00 0.00 88 1012.0
20260905014538 81 172 0.0 0.0 0.00 0.00 0.00 88 1011.9
20260905014050 81 172 0.0 0.0 0.00 0.00 0.00 87 1011.9
20260905013505 82 172 0.0 0.0 0.00 0.00 0.00 87 1011.8
20260905013022 82 172 0.0 0.0 0.00 0.00 0.00 87 1011.7
20260905012532 82 172 0.0 0.0 0.00 0.00 0.00 86 1011.7
20260905012051 82 172 0.0 0.0 0.00 0.00 0.00 87 1011.7
20260905011559 82 172 0.0 0.0 0.00 0.00 0.00 86 1011.7
20260905011017 83 172 0.0 0.0 0.00 0.00 0.00 85 1011.6
20260905010527 83 172 0.0 0.0 0.00 0.00 0.00 84 1011.6
20260905010043 83 172 0.0 0.0 0.00 0.00 0.00 84 1011.6
20260905005558 83 172 0.0 0.0 0.00 0.00 0.00 83 1011.4
20260905005017 84 172 0.0 0.0 0.00 0.00 0.00 83 1011.3
20260905004533 84 172 0.0 0.0 0.00 0.00 0.00 83 1011.2
20260905004045 84 172 0.0 0.0 0.00 0.00 0.00 83 1011.2
20260905003558 84 172 0.0 0.0 0.00 0.00 0.00 83 1011.2
20260905003502 84 172 0.0 0.0 0.00 0.00 0.00 83 1011.2
20260905003016 85 172 0.0 0.0 0.00 0.00 0.00 81 1011.2
20260905002528 85 172 0.0 0.0 0.00 0.00 0.00 81 1011.1
20260905002048 85 172 0.0 0.0 0.00 0.00 0.00 81 1011.1
20260905001605 85 172 0.0 0.0 0.00 0.00 0.00 80 1011.1
20260905001016 86 172 0.0 0.0 0.00 0.00 0.00 79 1011.1
20260905000526 86 172 0.0 0.0 0.00 0.00 0.00 79 1011.2
20260905000047 86 172 0.0 0.0 0.00 0.00 0.00 79 1011.2
20260904235553 86 172 0.0 0.0 0.00 0.00 0.00 78 1011.3
20260904235501 86 172 0.0 0.0 0.00 0.00 0.00 78 1011.2
20260904235011 87 172 0.0 0.0 0.00 0.00 0.00 78 1011.3
20260904234528 87 172 0.0 0.0 0.00 0.00 0.00 77 1011.3
20260904234041 87 172 0.0 0.0 0.00 0.00 0.00 76 1011.2
20260904233556 87 172 0.0 0.0 0.00 0.00 0.00 75 1011.3
20260904233009 88 172 0.0 0.0 0.00 0.00 0.00 75 1011.4
20260904232523 88 172 0.0 0.0 0.00 0.00 0.00 75 1011.4
20260904232032 88 172 0.0 0.0 0.00 0.00 0.00 74 1011.4
20260904231546 89 172 0.0 0.0 0.00 0.00 0.00 74 1011.4
20260904231056 89 172 0.0 0.0 0.00 0.00 0.00 73 1011.3
20260904230514 89 172 0.0 0.0 0.00 0.00 0.00 72 1011.3
20260904230027 89 172 0.0 0.0 0.00 0.00 0.00 71 1011.3
20260904225542 90 172 0.0 0.0 0.00 0.00 0.00 72 1011.3
20260904225056 90 172 0.0 0.0 0.00 0.00 0.00 70 1011.3
20260904224519 91 172 0.0 0.0 0.00 0.00 0.00 70 1011.3
20260904224034 91 172 0.0 0.0 0.00 0.00 0.00 71 1011.2
20260904223545 92 172 0.0 0.0 0.00 0.00 0.00 69 1011.3
20260904223104 92 172 0.0 0.0 0.00 0.00 0.00 67 1011.3
20260904223003 92 172 0.0 0.0 0.00 0.00 0.00 67 1011.2
20260904222522 92 172 0.0 0.0 0.00 0.00 0.00 67 1011.3
20260904222034 92 172 0.0 0.0 0.00 0.00 0.00 67 1011.2
20260904221553 93 172 0.0 0.0 0.00 0.00 0.00 66 1011.2
20260904221100 93 172 0.0 0.0 0.00 0.00 0.00 65 1011.2
20260904221008 93 172 0.0 0.0 0.00 0.00 0.00 65 1011.2
20260904220519 93 172 0.0 0.0 0.00 0.00 0.00 65 1011.3
20260904220037 93 172 0.0 0.0 0.00 0.00 0.00 64 1011.3
20260904215546 93 172 0.0 0.0 0.00 0.00 0.00 63 1011.3
20260904215008 94 172 0.0 0.0 0.00 0.00 0.00 63 1011.3
20260904214518 94 172 0.0 0.0 0.00 0.00 0.00 64 1011.3